User: anonymous   Login
Location: Knowlton
(51.2333°N, 1.2667°E)
Time: 16:41:36
(UTC+00:00)
Language:

DIWATA 2B (PO-101) - Orbit

View from above orbital plane
View from above orbital plane
View from above satellite
View from above satellite

Ground track
Ground track

The orbit data is extracted from the following two-line orbital elements,

1 43678U 18084H   21337.07943099  .00000341  00000-0  39496-4 0  9999
2 43678  97.9447 103.4599 0009069 208.1459 151.9227 14.91844732168571
Epoch (UTC): 03 December 2021 01:54:22
Eccentricity: 0.0009069
inclination: 97.9447°
perigee height: 586 km
apogee height: 598 km
right ascension of ascending node: 103.4599°
argument of perigee: 208.1459°
revolutions per day: 14.91844732
mean anomaly at epoch: 151.9227°
orbit number at epoch: 16857

The dashed part of the orbit path shows where the satellite is in the earth's shadow,  

DLR